User: anonymous   Login
Location: St. Louis
(38.6270°N, 90.1994°W)
Time: 22:44:54
(UTC-06:00)
Language:

JY1SAT - Orbit

View from above orbital plane
View from above orbital plane
View from above satellite
View from above satellite

Ground track
Ground track

The orbit data is extracted from the following two-line orbital elements,

1 43803U 18099AX  22024.45528318  .00001117  00000-0  10380-3 0  9996
2 43803  97.6388  95.0620 0015544  35.4471 324.7780 14.96265107171535
Epoch (UTC): 24 January 2022 10:55:36
Eccentricity: 0.0015544
inclination: 97.6388°
perigee height: 567 km
apogee height: 589 km
right ascension of ascending node: 95.0620°
argument of perigee: 35.4471°
revolutions per day: 14.96265107
mean anomaly at epoch: 324.7780°
orbit number at epoch: 17153

The dashed part of the orbit path shows where the satellite is in the earth's shadow,  

DLR